COSMOS 1275 DEB

Satellite information

Favourite Embed

Satellite Type and Status

DEBRISIN ORBIT

Key statistics

Satellite COSMOS 1275 DEB at a glance.

Uptime

16264

Days in orbit

Revolutions

≈ 14.1

Per day

Orbit

LEO

Low Earth Orbit

Inclination

82.7

Latest

Satellite identification and parameters

Extended collection of information and parameters for COSMOS 1275 DEB.

Object identification

Identified? True

Debris? True

Object name: COSMOS 1275 DEB

International designator: 1981-053QB

Object number (NORAD): 42115

Object ID (CCSDS): 42115

Country: COMMONWEALTH OF INDEPENDENT STATES (CIS)

Current information (Y/N): Y

RCS size: SMALL

Orbital parameters

Period: 102.134 minutes

Inclination: 82.6604 deg

SMA: 7237.798 km

Apoapsis: 904.194 km

Periapsis: 815.132 km

RAAN: 31.5288 deg

Eccentricy: 0.00615251

Argument of periapsis: 110.4921 deg

Mean anomaly: 250.2872 deg

Mean motion: 14.09915491 rev/day

Mean motion (dot): 0.00004205 rev/day2

B* drag term: 0.0023376564 1/REarth

Two-line elements (TLE)

Creation date: Dec. 11, 2025, 7:14 p.m.

Reference frame: TEME

Reference center: EARTH

Epoch: Dec. 11, 2025, 9:31 a.m. UTC

TLE line 0: 0 COSMOS 1275 DEB

TLE line 1: 1 42115U 81053QB 25345.39686664 .00004205 00000-0 23377-2 0 9992

TLE line 2: 2 42115 82.6604 31.5288 0061525 110.4921 250.2872 14.09915491616186

Live tracking on map

Real-time ground track for satellite COSMOS 1275 DEB.

In-orbit conjunctions

A list of the most updated potential collisions computed for object COSMOS 1275 DEB.

Target Orbit TCA Probability of collision Miss distance Type
DMSP 5D-2 F13 DEB SSO 2025-10-04 06:01:00 0.0001050185 130.0 (m) DEBRIS
SL-16 R/B LEO 2025-08-31 09:45:12 0.002164587 33.0 (m) ROCKET BODY
FENGYUN 1C DEB SSO 2025-08-18 03:31:50 0.001011803 36.0 (m) DEBRIS
CZ-4C DEB SSO 2024-11-15 15:40:14 0.0001758745 150.0 (m) DEBRIS
DMSP 5D-2 F8 (USA 26) SSO 2024-06-10 03:19:40 0.0001061915 650.0 (m) PAYLOAD

Associated space launch

Navigation satellite providing location information for the Tsiklon-B navigation system

COSMOS 1275 DEB was lifted into orbit during the mission ‘Kosmos-3M | Parus 27’, on board a Kosmos-3M space rocket.

The launch took place on June 4, 1981, 3:41 p.m. from 132/2.

For more information about the launch, click the button.

Launch to space Kosmos-3M | Parus 27
Kosmos-3M | Parus 27

Agency: N/A

Status: Launch Successful

Launch date: June 4, 1981, 3:41 p.m. UTC

Rocket: Kosmos-3M

Launch pad: 132/2

Location: Plesetsk Cosmodrome, Russian Federation

...

Latest news about this satellite

There are no fresh news available about this satellite. Check back as we update our databases every day.


Newsletter sign-up

Weekly statistics, charts and insights to help you stay on top of the space industry.